contact:dominique.lefevre@mio.osupytheas.fr, maurice.libes@osupytheas.fr, didier.mallarino@osupytheas.fr
Project:EMSO http://www.emso-fr.org/EMSO-France
Depth: 2436.0 m
Title:EMSO Ligure Ouest : Data MII capteur OXYGEN
DateTime,Latitude,Longitude,Optode-Type,Optode_Serial,Oxygen,Saturation_Oxygen,Temperature
DateTime,Latitude,Longitude,Optode-Type,Optode_Serial,µmol.l-1,%,degC
2019-07-17T12:00:09,42.805,6.029,4330,1995,192.745,58.943,13.287
2019-07-17T12:03:09,42.805,6.029,4330,1995,192.669,58.920,13.287
2019-07-17T12:06:09,42.805,6.029,4330,1995,192.764,58.951,13.289
2019-07-17T12:09:09,42.805,6.029,4330,1995,192.810,58.966,13.289
2019-07-17T12:12:09,42.805,6.029,4330,1995,192.753,58.949,13.290
2019-07-17T12:15:09,42.805,6.029,4330,1995,192.849,58.979,13.290
2019-07-17T12:18:09,42.805,6.029,4330,1995,192.817,58.969,13.290
2019-07-17T12:21:09,42.805,6.029,4330,1995,192.770,58.955,13.290
2019-07-17T12:24:09,42.805,6.029,4330,1995,192.705,58.935,13.290
2019-07-17T12:27:09,42.805,6.029,4330,1995,192.735,58.944,13.290
2019-07-17T12:30:09,42.805,6.029,4330,1995,192.809,58.966,13.290
2019-07-17T12:33:09,42.805,6.029,4330,1995,192.744,58.948,13.291
2019-07-17T12:36:09,42.805,6.029,4330,1995,192.745,58.949,13.292
2019-07-17T12:39:09,42.805,6.029,4330,1995,192.614,58.908,13.291
2019-07-17T12:42:09,42.805,6.029,4330,1995,192.584,58.900,13.292
2019-07-17T12:45:09,42.805,6.029,4330,1995,192.558,58.892,13.292
2019-07-17T12:48:09,42.805,6.029,4330,1995,192.609,58.907,13.292
2019-07-17T12:51:09,42.805,6.029,4330,1995,192.660,58.923,13.291
2019-07-17T12:54:09,42.805,6.029,4330,1995,192.687,58.931,13.292
2019-07-17T12:57:09,42.805,6.029,4330,1995,192.612,58.908,13.292
2019-07-17T13:00:09,42.805,6.029,4330,1995,192.661,58.923,13.292
2019-07-17T13:03:09,42.805,6.029,4330,1995,192.695,58.934,13.292
2019-07-17T13:06:09,42.805,6.029,4330,1995,192.643,58.919,13.293
2019-07-17T13:09:09,42.805,6.029,4330,1995,192.628,58.914,13.292
2019-07-17T13:12:09,42.805,6.029,4330,1995,192.643,58.918,13.292
2019-07-17T13:15:09,42.805,6.029,4330,1995,192.506,58.877,13.293
2019-07-17T13:18:09,42.805,6.029,4330,1995,192.482,58.869,13.292
2019-07-17T13:21:09,42.805,6.029,4330,1995,192.557,58.892,13.292
2019-07-17T13:24:09,42.805,6.029,4330,1995,192.570,58.896,13.292
2019-07-17T13:27:09,42.805,6.029,4330,1995,192.542,58.887,13.292
2019-07-17T13:30:09,42.805,6.029,4330,1995,192.610,58.909,13.293
2019-07-17T13:33:09,42.805,6.029,4330,1995,192.596,58.904,13.292
2019-07-17T13:36:09,42.805,6.029,4330,1995,192.572,58.897,13.292
2019-07-17T13:39:09,42.805,6.029,4330,1995,192.448,58.858,13.292
2019-07-17T13:42:08,42.805,6.029,4330,1995,192.431,58.853,13.292
2019-07-17T13:45:08,42.805,6.029,4330,1995,192.438,58.855,13.292
2019-07-17T13:48:08,42.805,6.029,4330,1995,192.434,58.853,13.291
2019-07-17T13:51:08,42.805,6.029,4330,1995,192.410,58.846,13.291
2019-07-17T13:54:08,42.805,6.029,4330,1995,192.439,58.855,13.291
2019-07-17T13:57:08,42.805,6.029,4330,1995,192.442,58.855,13.291
2019-07-17T14:00:08,42.805,6.029,4330,1995,192.516,58.878,13.291
2019-07-17T14:03:08,42.805,6.029,4330,1995,192.535,58.883,13.291
2019-07-17T14:06:08,42.805,6.029,4330,1995,192.471,58.864,13.290
2019-07-17T14:09:08,42.805,6.029,4330,1995,192.413,58.845,13.290
2019-07-17T14:12:08,42.805,6.029,4330,1995,192.311,58.816,13.291
2019-07-17T14:15:08,42.805,6.029,4330,1995,192.358,58.829,13.291
2019-07-17T14:18:08,42.805,6.029,4330,1995,192.319,58.818,13.292
2019-07-17T14:21:08,42.805,6.029,4330,1995,192.359,58.831,13.292
2019-07-17T14:24:08,42.805,6.029,4330,1995,192.475,58.866,13.291
2019-07-17T14:27:08,42.805,6.029,4330,1995,192.439,58.855,13.292
2019-07-17T14:30:08,42.805,6.029,4330,1995,192.425,58.850,13.291
2019-07-17T14:36:08,42.805,6.029,4330,1995,192.527,58.883,13.292
2019-07-17T14:39:08,42.805,6.029,4330,1995,192.612,58.907,13.291
2019-07-17T14:42:08,42.805,6.029,4330,1995,192.488,58.870,13.291
2019-07-17T14:45:08,42.805,6.029,4330,1995,192.551,58.889,13.291
2019-07-17T14:48:08,42.805,6.029,4330,1995,192.507,58.876,13.291
2019-07-17T14:51:08,42.805,6.029,4330,1995,192.418,58.848,13.291
2019-07-17T14:54:08,42.805,6.029,4330,1995,192.450,58.858,13.291
2019-07-17T14:57:08,42.805,6.029,4330,1995,192.446,58.857,13.291
2019-07-17T15:00:08,42.805,6.029,4330,1995,192.432,58.852,13.291
2019-07-17T15:03:08,42.805,6.029,4330,1995,192.394,58.841,13.291
2019-07-17T15:06:08,42.805,6.029,4330,1995,192.406,58.844,13.290
2019-07-17T15:09:08,42.805,6.029,4330,1995,192.428,58.849,13.290
2019-07-17T15:12:08,42.805,6.029,4330,1995,192.524,58.880,13.291
2019-07-17T15:15:08,42.805,6.029,4330,1995,192.601,58.903,13.290
2019-07-17T15:18:08,42.805,6.029,4330,1995,192.518,58.877,13.290
2019-07-17T15:21:08,42.805,6.029,4330,1995,192.532,58.882,13.290
2019-07-17T15:24:08,42.805,6.029,4330,1995,192.551,58.888,13.290
2019-07-17T15:27:08,42.805,6.029,4330,1995,192.566,58.893,13.290
2019-07-17T15:30:08,42.805,6.029,4330,1995,192.572,58.895,13.291
2019-07-17T15:33:08,42.805,6.029,4330,1995,192.568,58.893,13.290
2019-07-17T15:36:08,42.805,6.029,4330,1995,192.459,58.859,13.290
2019-07-17T15:39:08,42.805,6.029,4330,1995,192.579,58.897,13.291
2019-07-17T15:42:08,42.805,6.029,4330,1995,192.561,58.891,13.291
2019-07-17T15:45:08,42.805,6.029,4330,1995,192.568,58.894,13.291
2019-07-17T15:48:08,42.805,6.029,4330,1995,192.666,58.924,13.291
2019-07-17T15:51:08,42.805,6.029,4330,1995,192.670,58.925,13.291
2019-07-17T15:54:08,42.805,6.029,4330,1995,192.597,58.903,13.291
2019-07-17T15:57:08,42.805,6.029,4330,1995,192.598,58.904,13.292
2019-07-17T16:00:08,42.805,6.029,4330,1995,192.613,58.907,13.291
2019-07-17T16:03:08,42.805,6.029,4330,1995,192.429,58.852,13.291
2019-07-17T16:06:08,42.805,6.029,4330,1995,192.549,58.887,13.290
2019-07-17T16:09:08,42.805,6.029,4330,1995,192.559,58.892,13.291
2019-07-17T16:12:08,42.805,6.029,4330,1995,192.611,58.908,13.292
2019-07-17T16:15:08,42.805,6.029,4330,1995,192.486,58.870,13.292
2019-07-17T16:18:08,42.805,6.029,4330,1995,192.639,58.916,13.291
2019-07-17T16:21:08,42.805,6.029,4330,1995,192.591,58.902,13.292
2019-07-17T16:24:08,42.805,6.029,4330,1995,192.569,58.895,13.292
2019-07-17T16:27:08,42.805,6.029,4330,1995,192.543,58.888,13.292
2019-07-17T16:30:08,42.805,6.029,4330,1995,192.541,58.887,13.292
2019-07-17T16:33:08,42.805,6.029,4330,1995,192.540,58.888,13.293
2019-07-17T16:36:08,42.805,6.029,4330,1995,192.522,58.882,13.293
2019-07-17T16:39:08,42.805,6.029,4330,1995,192.469,58.866,13.293
2019-07-17T16:42:08,42.805,6.029,4330,1995,192.523,58.882,13.292
2019-07-17T16:45:08,42.805,6.029,4330,1995,192.445,58.858,13.292
2019-07-17T16:48:08,42.805,6.029,4330,1995,192.515,58.879,13.292
2019-07-17T16:51:08,42.805,6.029,4330,1995,192.500,58.875,13.293
2019-07-17T16:54:08,42.805,6.029,4330,1995,192.569,58.896,13.293
2019-07-17T16:57:08,42.805,6.029,4330,1995,192.582,58.899,13.291
2019-07-17T17:00:08,42.805,6.029,4330,1995,192.612,58.908,13.292
2019-07-17T17:03:08,42.805,6.029,4330,1995,192.560,58.892,13.291
2019-07-17T17:06:08,42.805,6.029,4330,1995,192.556,58.891,13.292
2019-07-17T17:12:08,42.805,6.029,4330,1995,192.574,58.892,13.288
2019-07-17T17:15:08,42.805,6.029,4330,1995,192.645,58.918,13.291
2019-07-17T17:18:08,42.805,6.029,4330,1995,192.605,58.907,13.293
2019-07-17T17:21:08,42.805,6.029,4330,1995,192.623,58.912,13.292
2019-07-17T17:24:08,42.805,6.029,4330,1995,192.675,58.929,13.292
2019-07-17T17:27:08,42.805,6.029,4330,1995,192.616,58.912,13.294
2019-07-17T17:30:08,42.805,6.029,4330,1995,192.702,58.937,13.292
2019-07-17T17:33:08,42.805,6.029,4330,1995,192.666,58.925,13.292
2019-07-17T17:36:08,42.805,6.029,4330,1995,192.741,58.949,13.292
2019-07-17T17:39:08,42.805,6.029,4330,1995,192.689,58.933,13.292
2019-07-17T17:42:08,42.805,6.029,4330,1995,192.635,58.915,13.292
2019-07-17T17:45:08,42.805,6.029,4330,1995,192.639,58.917,13.292
2019-07-17T17:48:08,42.805,6.029,4330,1995,192.575,58.898,13.292
2019-07-17T17:51:08,42.805,6.029,4330,1995,192.619,58.910,13.292
2019-07-17T17:54:08,42.805,6.029,4330,1995,192.588,58.901,13.292
2019-07-17T17:57:08,42.805,6.029,4330,1995,192.660,58.922,13.291
2019-07-17T18:00:08,42.805,6.029,4330,1995,192.719,58.940,13.291
2019-07-17T18:03:08,42.805,6.029,4330,1995,192.685,58.930,13.291
2019-07-17T18:06:08,42.805,6.029,4330,1995,192.724,58.941,13.291
2019-07-17T18:09:08,42.805,6.029,4330,1995,192.711,58.937,13.290
2019-07-17T18:12:08,42.805,6.029,4330,1995,192.613,58.906,13.290
2019-07-17T18:15:08,42.805,6.029,4330,1995,192.611,58.906,13.290
2019-07-17T18:18:08,42.805,6.029,4330,1995,192.650,58.919,13.291
2019-07-17T18:21:08,42.805,6.029,4330,1995,192.650,58.918,13.290
2019-07-17T18:24:08,42.805,6.029,4330,1995,192.659,58.922,13.291
2019-07-17T18:27:08,42.805,6.029,4330,1995,192.578,58.896,13.290
2019-07-17T18:30:08,42.805,6.029,4330,1995,192.591,58.900,13.290
2019-07-17T18:33:08,42.805,6.029,4330,1995,192.598,58.902,13.290
2019-07-17T18:36:08,42.805,6.029,4330,1995,192.553,58.888,13.290
2019-07-17T18:39:08,42.805,6.029,4330,1995,192.614,58.906,13.290
2019-07-17T18:42:08,42.805,6.029,4330,1995,192.728,58.941,13.290
2019-07-17T18:45:08,42.805,6.029,4330,1995,192.705,58.934,13.290
2019-07-17T18:48:08,42.805,6.029,4330,1995,192.742,58.946,13.290
2019-07-17T18:51:08,42.805,6.029,4330,1995,192.720,58.940,13.290
2019-07-17T18:54:08,42.805,6.029,4330,1995,192.644,58.917,13.291
2019-07-17T18:57:08,42.805,6.029,4330,1995,192.688,58.930,13.291
2019-07-17T19:00:08,42.805,6.029,4330,1995,192.722,58.940,13.290
2019-07-17T19:03:08,42.805,6.029,4330,1995,192.739,58.946,13.291
2019-07-17T19:06:08,42.805,6.029,4330,1995,192.735,58.944,13.290
2019-07-17T19:09:08,42.805,6.029,4330,1995,192.616,58.908,13.291
2019-07-17T19:12:08,42.805,6.029,4330,1995,192.588,58.900,13.291
2019-07-17T19:15:08,42.805,6.029,4330,1995,192.642,58.917,13.291
2019-07-17T19:18:08,42.805,6.029,4330,1995,192.676,58.928,13.292
2019-07-17T19:21:08,42.805,6.029,4330,1995,192.595,58.903,13.292
2019-07-17T19:24:08,42.805,6.029,4330,1995,192.555,58.891,13.292
2019-07-17T19:27:08,42.805,6.029,4330,1995,192.601,58.905,13.292
2019-07-17T19:30:08,42.805,6.029,4330,1995,192.673,58.927,13.292
2019-07-17T19:33:08,42.805,6.029,4330,1995,192.583,58.899,13.291
2019-07-17T19:36:08,42.805,6.029,4330,1995,192.588,58.901,13.291
2019-07-17T19:39:08,42.805,6.029,4330,1995,192.579,58.899,13.292
2019-07-17T19:45:08,42.805,6.029,4330,1995,192.679,58.927,13.291
2019-07-17T19:48:08,42.805,6.029,4330,1995,192.635,58.912,13.289
2019-07-17T19:51:08,42.805,6.029,4330,1995,192.608,58.906,13.291
2019-07-17T19:54:08,42.805,6.029,4330,1995,192.655,58.920,13.291
2019-07-17T19:57:08,42.805,6.029,4330,1995,192.650,58.919,13.291
2019-07-17T20:00:08,42.805,6.029,4330,1995,192.740,58.947,13.291
2019-07-17T20:03:08,42.805,6.029,4330,1995,192.719,58.940,13.291
2019-07-17T20:06:08,42.805,6.029,4330,1995,192.667,58.925,13.292
2019-07-17T20:09:08,42.805,6.029,4330,1995,192.763,58.954,13.292
2019-07-17T20:12:08,42.805,6.029,4330,1995,192.755,58.952,13.291
2019-07-17T20:15:08,42.805,6.029,4330,1995,192.696,58.934,13.292
2019-07-17T20:18:08,42.805,6.029,4330,1995,192.717,58.939,13.291
2019-07-17T20:21:08,42.805,6.029,4330,1995,192.719,58.941,13.292
2019-07-17T20:24:08,42.805,6.029,4330,1995,192.661,58.924,13.292
2019-07-17T20:27:08,42.805,6.029,4330,1995,192.712,58.939,13.292
2019-07-17T20:30:08,42.805,6.029,4330,1995,192.750,58.951,13.292
2019-07-17T20:33:08,42.805,6.029,4330,1995,192.759,58.956,13.293
2019-07-17T20:36:08,42.805,6.029,4330,1995,192.767,58.957,13.293
2019-07-17T20:39:08,42.805,6.029,4330,1995,192.767,58.956,13.292
2019-07-17T20:42:08,42.805,6.029,4330,1995,192.787,58.964,13.293
2019-07-17T20:45:08,42.805,6.029,4330,1995,192.821,58.973,13.292
2019-07-17T20:48:08,42.805,6.029,4330,1995,192.779,58.961,13.293
2019-07-17T20:51:08,42.805,6.029,4330,1995,192.795,58.965,13.292
2019-07-17T20:54:08,42.805,6.029,4330,1995,192.780,58.961,13.292
2019-07-17T20:57:08,42.805,6.029,4330,1995,192.775,58.959,13.292
2019-07-17T21:00:08,42.805,6.029,4330,1995,192.782,58.962,13.293
2019-07-17T21:03:08,42.805,6.029,4330,1995,192.827,58.975,13.293
2019-07-17T21:06:08,42.805,6.029,4330,1995,192.794,58.965,13.293
2019-07-17T21:09:08,42.805,6.029,4330,1995,192.871,58.988,13.292
2019-07-17T21:12:08,42.805,6.029,4330,1995,192.963,59.016,13.292
2019-07-17T21:15:08,42.805,6.029,4330,1995,192.946,59.011,13.292
2019-07-17T21:18:08,42.805,6.029,4330,1995,192.931,59.006,13.292
2019-07-17T21:21:08,42.805,6.029,4330,1995,192.861,58.984,13.291
2019-07-17T21:24:08,42.805,6.029,4330,1995,192.902,58.996,13.291
2019-07-17T21:27:08,42.805,6.029,4330,1995,192.960,59.013,13.291
2019-07-17T21:30:08,42.805,6.029,4330,1995,192.908,58.998,13.291
2019-07-17T21:33:08,42.805,6.029,4330,1995,192.939,59.007,13.291
2019-07-17T21:36:08,42.805,6.029,4330,1995,193.045,59.039,13.291
2019-07-17T21:39:08,42.805,6.029,4330,1995,192.976,59.017,13.290
2019-07-17T21:42:08,42.805,6.029,4330,1995,193.040,59.037,13.290
2019-07-17T21:45:08,42.805,6.029,4330,1995,192.994,59.023,13.290
2019-07-17T21:48:08,42.805,6.029,4330,1995,192.911,58.997,13.290
2019-07-17T21:51:08,42.805,6.029,4330,1995,192.982,59.020,13.290
2019-07-17T21:54:08,42.805,6.029,4330,1995,192.968,59.015,13.290
2019-07-17T21:57:08,42.805,6.029,4330,1995,192.955,59.011,13.290
2019-07-17T22:00:08,42.805,6.029,4330,1995,193.015,59.029,13.290
2019-07-17T22:03:08,42.805,6.029,4330,1995,193.039,59.036,13.290
2019-07-17T22:06:08,42.805,6.029,4330,1995,193.080,59.049,13.290
2019-07-17T22:09:08,42.805,6.029,4330,1995,193.101,59.054,13.289
2019-07-17T22:12:08,42.805,6.029,4330,1995,193.152,59.071,13.290
2019-07-17T22:15:08,42.805,6.029,4330,1995,193.107,59.058,13.290
2019-07-17T22:21:08,42.805,6.029,4330,1995,193.017,59.027,13.288
2019-07-17T22:24:08,42.805,6.029,4330,1995,193.033,59.035,13.290
2019-07-17T22:27:08,42.805,6.029,4330,1995,193.043,59.038,13.291
2019-07-17T22:30:08,42.805,6.029,4330,1995,193.080,59.050,13.290
2019-07-17T22:33:08,42.805,6.029,4330,1995,193.128,59.065,13.291
2019-07-17T22:36:08,42.805,6.029,4330,1995,193.139,59.068,13.291
2019-07-17T22:39:08,42.805,6.029,4330,1995,193.134,59.065,13.289
2019-07-17T22:42:08,42.805,6.029,4330,1995,193.126,59.062,13.289
2019-07-17T22:45:08,42.805,6.029,4330,1995,193.153,59.072,13.291
2019-07-17T22:48:08,42.805,6.029,4330,1995,193.101,59.055,13.290
2019-07-17T22:51:08,42.805,6.029,4330,1995,193.092,59.052,13.289
2019-07-17T22:54:08,42.805,6.029,4330,1995,193.231,59.093,13.289
2019-07-17T22:57:08,42.805,6.029,4330,1995,193.203,59.086,13.290
2019-07-17T23:00:08,42.805,6.029,4330,1995,193.173,59.077,13.290
2019-07-17T23:03:08,42.805,6.029,4330,1995,193.224,59.092,13.289
2019-07-17T23:06:08,42.805,6.029,4330,1995,193.167,59.075,13.290
2019-07-17T23:09:08,42.805,6.029,4330,1995,193.126,59.063,13.290
2019-07-17T23:12:08,42.805,6.029,4330,1995,193.151,59.069,13.289
2019-07-17T23:15:08,42.805,6.029,4330,1995,193.170,59.077,13.290
2019-07-17T23:18:08,42.805,6.029,4330,1995,193.114,59.058,13.289
2019-07-17T23:21:08,42.805,6.029,4330,1995,193.148,59.068,13.289
2019-07-17T23:24:08,42.805,6.029,4330,1995,193.195,59.084,13.290
2019-07-17T23:27:08,42.805,6.029,4330,1995,193.249,59.099,13.289
2019-07-17T23:30:08,42.805,6.029,4330,1995,193.205,59.088,13.290
2019-07-17T23:33:08,42.805,6.029,4330,1995,193.310,59.120,13.290
2019-07-17T23:36:08,42.805,6.029,4330,1995,193.267,59.106,13.290
2019-07-17T23:39:08,42.805,6.029,4330,1995,193.235,59.098,13.291
2019-07-17T23:42:08,42.805,6.029,4330,1995,193.297,59.114,13.289
2019-07-17T23:45:08,42.805,6.029,4330,1995,193.314,59.120,13.290
2019-07-17T23:48:08,42.805,6.029,4330,1995,193.214,59.089,13.289
2019-07-17T23:51:08,42.805,6.029,4330,1995,193.219,59.090,13.289
2019-07-17T23:54:08,42.805,6.029,4330,1995,193.255,59.102,13.290
2019-07-17T23:57:08,42.805,6.029,4330,1995,193.330,59.124,13.289
